EW4229 Weather Reports


Display with metric or nautical units.
time (UTC)temp
F
wind
direction
speed
MPH
gust
MPH
rain 1hr
in
rain 24hr
in
rain mn
in
humidity
%
barometer
mb
20260508193033 64 316 4.0 7.0 0.00 0.00 0.00 43 1010.8
20260508191537 63 299 4.0 10.0 0.00 0.00 0.00 44 1011.3
20260508190130 63 311 3.0 9.0 0.00 0.00 0.00 45 1011.3
20260508184531 63 328 5.0 10.0 0.00 0.00 0.00 42 1011.4
20260508183033 65 86 4.0 12.0 0.00 0.00 0.00 43 1011.5
20260508181531 64 293 4.0 13.0 0.00 0.00 0.00 43 1011.4
20260508180128 61 319 3.0 12.0 0.00 0.00 0.00 44 1011.9
20260508174523 0 0.0 0.0 0.00 0.00 0.00 1011.9
20260508173020 0 0.0 0.0 0.00 0.00 0.00 1011.9
20260508171517 0 0.0 0.0 0.00 0.00 0.00 1011.9
20260508170114 63 344 4.0 14.0 0.00 0.00 0.00 43 1012.1
20260508164516 63 316 9.0 16.0 0.00 0.00 0.00 42 1012.0
20260508163017 63 310 5.0 12.0 0.00 0.00 0.00 44 1012.2
20260508161512 62 299 5.0 11.0 0.00 0.00 0.00 43 1012.4
20260508160110 62 314 4.0 14.0 0.00 0.00 0.00 45 1012.7
20260508154506 0 0.0 0.0 0.00 0.00 0.00 1012.9
20260508153100 60 349 7.0 0.0 0.00 0.00 0.00 1012.8
20260508151556 0 0.0 0.0 0.00 0.00 0.00 1013.1
20260508150104 59 307 5.0 8.0 0.00 0.00 0.00 50 1013.3
20260508144555 58 323 1.0 7.0 0.00 0.00 0.00 52 1013.4
20260508143107 57 306 1.0 6.0 0.00 0.00 0.00 49 1013.6
20260508141549 56 189 0.0 5.0 0.00 0.00 0.00 53 1013.6
20260508140057 54 214 2.0 6.0 0.00 0.00 0.00 66 1014.0
20260508134542 53 240 0.0 4.0 0.00 0.00 0.00 65 1014.1
20260508133038 52 204 0.0 5.0 0.00 0.00 0.00 66 1014.3
20260508131534 0 0.0 0.0 0.00 0.00 0.00 1014.5
20260508130031 51 255 0.0 1.0 0.00 0.00 0.00 62 1014.6
20260508124533 51 326 0.0 4.0 0.00 0.00 0.00 60 1014.5
20260508123033 52 330 0.0 3.0 0.00 0.00 0.00 59 1014.6
20260508121528 50 149 0.0 2.0 0.00 0.00 0.00 66 1014.4
20260508120028 48 290 0.0 1.0 0.00 0.00 0.00 76 1014.2
20260508114525 48 290 0.0 1.0 0.00 0.00 0.00 77 1014.2
20260508113024 49 290 0.0 0.0 0.00 0.00 0.00 73 1014.1
20260508111522 44 290 0.0 0.0 0.00 0.00 0.00 82 1014.0
20260508110020 43 290 0.0 0.0 0.00 0.00 0.00 84 1013.6
20260508104521 40 290 0.0 0.0 0.00 0.00 0.00 85 1013.7
20260508103020 39 290 0.0 0.0 0.00 0.00 0.00 86 1013.5
20260508101517 38 290 0.0 1.0 0.00 0.00 0.00 86 1013.3
20260508100022 39 290 0.0 1.0 0.00 0.00 0.00 85 1013.2
20260508094516 39 286 0.0 1.0 0.00 0.00 0.00 85 1013.2
20260508093019 39 286 0.0 1.0 0.00 0.00 0.00 85 1013.3
20260508091514 39 285 0.0 1.0 0.00 0.00 0.00 84 1013.2
20260508090012 39 293 0.0 1.0 0.00 0.00 0.00 83 1013.1
20260508084515 39 293 0.0 1.0 0.00 0.00 0.00 84 1013.0
20260508083016 40 295 0.0 1.0 0.00 0.00 0.00 81 1013.0
20260508081516 41 294 0.0 1.0 0.00 0.00 0.00 79 1012.9
20260508080028 42 295 0.0 0.0 0.00 0.00 0.00 79 1012.8
20260508074506 39 240 0.0 0.0 0.00 0.00 0.00 83 1012.8
20260508073004 40 243 0.0 0.0 0.00 0.00 0.00 84 1012.7
20260508071601 41 257 0.0 0.0 0.00 0.00 0.00 77 1012.7
20260508070058 44 257 0.0 0.0 0.00 0.00 0.00 75 1012.6
20260508064558 46 257 0.0 0.0 0.00 0.00 0.00 72 1012.5
20260508063053 48 286 0.0 8.0 0.00 0.00 0.00 69 1012.5
20260508061548 49 285 3.0 7.0 0.00 0.00 0.00 67 1012.3
20260508060045 51 304 2.0 8.0 0.00 0.00 0.00 56 1012.3
20260508054549 52 303 4.0 7.0 0.00 0.00 0.00 55 1012.3
20260508053052 52 306 7.0 14.0 0.00 0.00 0.00 55 1012.2
20260508051543 53 345 3.0 8.0 0.00 0.00 0.00 56 1011.9
20260508050048 54 298 5.0 14.0 0.00 0.40 0.00 53 1011.6
20260508044535 54 326 7.0 20.0 0.00 0.40 0.00 51 1011.3
20260508043032 55 302 6.0 14.0 0.00 0.40 0.00 51 1011.1
20260508041528 55 299 12.0 20.0 0.00 0.40 0.00 51 1010.7
20260508040041 54 334 2.0 6.0 0.00 0.40 0.40 53 1010.3
20260508034529 54 309 1.0 5.0 0.00 0.40 0.40 54 1010.1
20260508033019 0 0.0 0.0 0.00 0.40 0.40 1009.9
20260508031517 50 294 0.0 0.0 0.00 0.40 0.40 1009.8
20260508030013 51 265 0.0 3.0 0.00 0.40 0.40 63 1009.8
20260508024523 51 296 1.0 2.0 0.00 0.40 0.40 65 1009.7
20260508023015 50 305 0.0 2.0 0.00 0.40 0.40 70 1009.6
20260508021515 51 309 0.0 0.0 0.00 0.40 0.40 65 1009.5
20260508020014 51 309 0.0 0.0 0.00 0.40 0.40 64 1009.5
20260508014510 51 312 0.0 0.0 0.00 0.40 0.40 64 1009.3
20260508013011 51 292 0.0 1.0 0.00 0.40 0.40 62 1009.0
20260508011507 0 0.0 0.0 0.00 0.40 0.40 1008.9
20260508010006 54 299 0.0 1.0 0.00 0.40 0.40 61 1008.7
20260508004504 55 297 0.0 1.0 0.00 0.40 0.40 56 1008.5
20260508003004 59 298 0.0 3.0 0.00 0.40 0.40 47 1008.3
20260508001505 60 311 0.0 2.0 0.00 0.40 0.40 42 1008.2
20260508000003 61 309 2.0 4.0 0.00 0.40 0.40 38 1008.2
20260507234508 62 314 2.0 7.0 0.00 0.40 0.40 39 1008.0
20260507233008 62 356 2.0 6.0 0.00 0.40 0.40 38 1007.9
20260507231505 63 321 0.0 6.0 0.00 0.40 0.40 36 1007.7
20260507230013 63 335 1.0 4.0 0.00 0.40 0.40 37 1007.6
20260507224502 63 317 2.0 6.0 0.00 0.40 0.40 37 1007.6
20260507223002 63 276 4.0 9.0 0.00 0.40 0.40 37 1007.5
20260507221559 0 0.0 0.0 0.00 0.40 0.40 1007.5
20260507220056 63 310 3.0 6.0 0.00 0.40 0.40 36 1007.6
20260507214600 64 309 3.0 5.0 0.00 0.40 0.40 37 1007.5
20260507213055 66 354 1.0 6.0 0.00 0.40 0.40 36 1007.7
20260507211601 65 329 3.0 6.0 0.00 0.40 0.40 36 1007.6
20260507210107 64 7 2.0 6.0 0.00 0.40 0.40 39 1007.7
20260507204549 64 326 0.0 8.0 0.00 0.40 0.40 37 1007.9
20260507203045 63 296 3.0 13.0 0.00 0.40 0.40 38 1007.9
20260507201544 64 290 5.0 8.0 0.00 0.40 0.40 39 1008.0
20260507200052 63 313 3.0 9.0 0.00 0.40 0.40 37 1008.1
20260507194550 64 316 3.0 14.0 0.00 0.40 0.40 37 1008.2